RH
56 54 52 50 49 47 46 44 43 42 41 40 40 39 38 37 37 36 35 35 35 34 34 33 33 33 32 32 32 32 31 31 32 32 33 33 32 32 32 31 31 31 31 31 31 31 31 31 31 31 30 31 31 32 31 31 30 30 30 31 31 32 31 29 27 27 29 30 30 30 30 30 30 30 31 30 31 32 34 35 35 36 37 39 41
41 41 41 41 41 41 41 41 41 41 40 40 40 40 40 40 40 41 40 40 40 40 40 40 40 40 40 40 39 39 38 38 38 39 40 42 42 43 42 42 42 41 42 42 43 43 44 44 43 42 42 41 41 41 41 40 40 39 40 40 40 40 40 38 36 35 37 38 38 40 41 40 40 39 40 40 41 42 42 43 44 44 46 47 49
39 39 39 39 39 39 39 39 39 39 39 39 39 39 39 39 39 39 39 39 39 38 39 39 39 39 39 39 39 39 38 37 38 38 40 42 44 45 45 46 46 47 48 49 51 52 54 56 55 56 56 56 56 56 56 56 56 56 56 57 56 56 56 55 53 50 49 49 50 54 55 55 54 51 51 53 52 51 50 51 52 52 53 52 53
29 29 29 28 28 28 28 28 28 27 28 27 27 27 27 27 27 27 27 27 27 27 27 27 27 27 27 27 27 27 27 26 26 26 27 28 29 30 30 31 31 32 32 33 35 36 38 40 40 42 43 44 46 47 48 49 50 52 53 54 55 57 58 57 56 53 51 50 52 54 55 57 60 56 54 53 51 51 50 49 50 49 49 48 49
27 27 27 27 27 28 28 28 28 28 28 28 28 28 28 28 28 28 27 27 27 27 27 26 26 26 26 26 25 25 25 24 24 24 24 24 24 24 25 25 24 24 25 25 25 25 26 27 27 28 28 28 29 30 30 31 32 34 35 36 37 39 41 41 42 40 39 39 39 42 41 44 49 48 48 47 42 41 41 40 40 39 39 39 39
32 32 32 32 32 33 33 33 34 34 34 34 34 34 34 34 34 33 33 33 33 32 32 32 31 31 30 30 30 29 29 29 28 28 28 28 27 27 27 27 27 27 27 26 27 26 26 27 27 27 27 27 27 27 27 27 27 27 27 27 27 28 28 29 30 29 29 28 27 29 29 30 32 33 36 38 35 33 32 31 32 32 32 32 32
35 35 36 36 36 36 37 37 37 38 38 38 38 38 38 38 38 38 38 38 37 37 37 36 36 35 34 34 33 33 33 32 32 31 31 31 31 31 31 31 30 30 30 30 30 31 31 30 31 30 30 30 29 29 29 29 29 29 29 29 28 28 28 28 29 29 28 27 25 25 25 25 26 26 27 28 28 29 26 24 24 25 25 26 26
38 38 38 38 38 38 38 38 38 38 38 38 39 39 39 39 39 39 38 38 38 37 37 36 36 36 35 34 34 33 33 33 32 32 31 31 30 30 30 30 30 29 29 30 30 31 32 32 33 33 33 33 32 32 32 32 32 32 32 31 31 31 30 30 31 31 31 30 29 28 27 27 27 28 28 27 27 28 28 26 24 22 22 22 22
34 33 33 32 31 31 30 30 29 29 29 29 29 28 28 29 28 29 29 28 29 28 28 27 27 27 26 26 26 26 26 26 27 27 27 27 27 27 27 27 26 25 25 26 26 27 29 30 31 31 32 32 33 33 33 34 34 34 34 34 34 34 34 34 33 33 33 33 32 31 30 29 29 29 29 30 30 31 32 33 31 28 26 25 24
21 20 19 19 18 17 16 16 15 15 15 14 14 14 14 14 14 14 14 14 14 14 14 14 14 14 14 14 14 14 14 14 15 15 15 16 16 17 17 17 17 17 18 18 19 20 21 23 25 26 27 28 29 30 31 32 32 33 34 34 35 35 35 35 35 36 36 35 35 35 34 33 32 31 30 30 30 31 33 35 36 35 32 31 29
12 11 11 11 10 10 10 10 9 9 10 9 9 9 9 9 9 9 10 10 10 10 10 10 10 10 10 10 10 10 10 10 10 10 10 9 10 10 10 10 10 10 10 11 11 12 13 14 15 16 18 19 21 22 24 26 27 29 30 31 33 33 33 33 34 34 35 35 36 36 36 35 35 34 33 32 32 31 32 34 36 37 36 35 33
10 9 9 9 9 9 9 9 9 9 9 9 8 9 9 9 9 9 9 9 9 9 9 9 9 9 9 9 9 9 9 9 9 8 8 8 8 8 8 8 8 8 8 8 8 8 8 9 9 9 10 11 12 13 14 15 17 19 21 23 25 27 28 29 30 31 31 32 33 34 34 35 35 35 34 34 33 32 32 33 35 36 37 38 36
9 9 9 9 9 9 9 9 9 9 9 9 8 8 8 8 8 8 8 8 8 8 8 8 8 8 8 8 8 8 8 8 8 8 8 8 8 8 8 7 7 7 7 7 7 7 7 7 8 8 8 8 8 9 9 9 10 11 11 13 14 16 18 20 22 24 25 26 28 29 30 31 32 33 33 33 32 31 31 31 33 34 36 38 38
10 10 10 10 10 9 10 9 9 9 9 9 9 8 8 8 8 8 8 8 8 8 8 7 7 7 7 7 7 7 7 7 7 7 7 7 7 7 7 6 7 6 6 6 6 6 6 6 6 6 6 7 7 7 7 7 8 8 8 9 9 9 10 11 12 13 15 16 17 19 21 23 25 27 28 30 29 29 28 28 29 31 33 36 39
12 12 12 11 11 10 10 10 10 10 10 10 10 10 9 9 9 9 8 8 8 8 8 8 8 8 7 7 7 7 7 7 7 7 7 7 7 7 7 6 6 6 6 6 6 6 6 6 6 6 6 6 6 6 6 6 6 6 7 7 7 8 8 8 9 9 10 10 11 12 12 13 15 16 18 20 21 23 23 23 23 25 28 31 35
15 14 14 13 13 13 12 12 11 11 11 11 11 11 10 10 9 9 9 8 8 8 8 8 8 8 7 7 7 7 7 7 7 7 7 7 7 7 7 7 6 6 6 6 6 6 6 6 6 6 6 6 6 6 6 6 6 6 6 6 6 6 6 6 7 7 8 8 8 9 9 10 10 10 11 12 13 14 15 16 17 18 20 24 28
18 17 16 16 15 15 14 14 13 12 12 11 11 11 11 11 10 10 10 9 9 9 8 9 9 8 8 8 8 8 8 8 7 7 7 7 7 7 8 8 8 8 7 7 7 7 7 6 6 6 6 6 6 6 6 6 6 6 6 6 6 6 6 6 6 6 6 6 7 7 7 8 8 8 9 9 9 10 10 11 11 12 13 15 18
19 18 17 16 15 14 13 13 12 12 12 12 11 11 11 11 10 10 10 9 9 8 8 8 8 8 8 8 8 8 8 8 8 8 8 8 8 8 8 8 8 8 8 8 8 8 8 7 7 7 7 6 6 6 6 6 6 6 6 6 6 6 6 6 6 6 6 6 6 6 6 6 6 6 7 7 7 8 8 9 9 9 9 10 11
17 16 16 15 14 13 13 12 12 12 13 13 13 14 13 13 13 13 12 11 10 9 8 8 9 9 8 8 8 8 8 8 8 8 8 8 8 8 8 8 8 8 8 8 8 8 8 8 8 8 8 8 7 7 7 6 6 6 6 6 6 6 6 6 6 6 6 6 6 6 6 6 6 6 5 6 6 6 6 7 7 7 8 8 9
17 15 15 14 14 13 13 12 12 12 13 14 15 15 15 16 16 16 16 14 12 11 10 9 10 10 10 9 9 9 8 8 8 8 8 8 8 7 8 7 7 7 7 7 7 7 7 7 7 7 7 7 7 7 7 7 7 7 6 6 6 6 6 6 6 6 6 6 6 6 6 6 6 6 6 5 5 5 5 5 6 6 6 6 7
20 17 15 14 13 13 12 12 12 12 12 13 14 15 16 16 17 18 18 17 16 14 12 11 11 11 11 10 10 9 9 8 8 8 8 8 7 7 7 7 7 7 6 6 6 6 6 6 6 6 6 6 6 6 6 6 6 6 6 6 6 6 6 5 5 6 5 6 6 6 6 6 6 6 6 6 6 6 5 5 5 5 5 5 5
20 18 16 14 13 12 12 11 11 11 11 12 13 14 15 16 18 19 19 18 17 16 14 12 11 11 11 11 10 10 9 9 8 8 8 7 7 6 6 6 6 6 6 6 6 6 6 6 6 5 5 6 5 5 6 6 6 6 6 6 6 6 6 6 5 5 5 5 5 5 6 6 6 6 6 6 6 6 6 5 5 5 5 5 5
20 18 16 14 13 12 11 11 10 11 11 12 13 14 15 16 16 17 17 17 16 15 14 12 11 11 11 11 10 10 9 9 8 8 8 7 7 6 6 6 6 6 6 6 5 6 6 5 5 5 5 5 5 5 6 6 6 6 6 6 6 6 6 6 6 5 5 5 4 4 5 4 5 5 6 6 6 6 5 5 5 5 5 5 5
24 21 17 15 13 11 10 10 10 10 10 11 11 12 12 13 13 13 13 13 13 12 12 12 11 11 10 10 10 10 9 9 8 8 8 7 7 6 6 6 6 5 5 5 5 5 5 5 5 5 5 5 5 5 5 5 5 5 5 6 5 6 6 6 6 6 6 6 5 5 5 4 4 4 5 5 5 5 5 5 5 5 5 5 5
28 23 18 14 11 10 9 8 8 8 9 8 9 9 9 9 10 10 11 11 11 11 11 11 10 10 9 9 8 9 8 8 8 7 7 7 6 6 6 6 6 6 5 5 5 5 5 5 5 4 4 4 4 5 5 4 5 5 5 5 5 5 5 5 6 6 6 6 6 6 5 5 4 4 4 4 4 4 5 5 5 5 5 5 5
36 29 23 17 14 11 10 9 9 8 8 7 7 7 7 7 8 8 9 9 9 9 9 9 9 8 8 7 7 7 7 7 7 7 6 6 6 6 6 6 6 6 5 5 5 5 5 4 4 4 4 4 4 4 4 4 4 4 4 4 5 5 5 5 5 5 6 6 6 6 6 5 5 5 4 4 4 4 4 4 4 5 5 5 5
51 43 34 25 20 15 12 11 10 10 9 8 8 7 7 7 7 7 7 7 7 7 7 7 7 7 6 6 6 6 6 6 6 6 6 6 6 6 6 6 6 5 5 5 5 5 5 5 5 5 4 4 4 4 4 4 4 4 4 4 4 4 4 5 5 5 5 5 5 5 5 5 5 5 5 4 4 4 3 4 4 4 4 4 5
62 53 41 30 23 17 13 12 12 12 11 11 9 9 8 7 7 7 6 6 6 5 5 5 5 6 5 6 6 5 5 6 6 6 6 5 5 5 5 5 5 5 5 5 5 5 5 5 5 5 4 4 4 4 4 4 4 4 4 4 4 4 4 4 4 4 5 4 5 5 5 5 5 5 5 5 4 4 4 4 3 3 4 4 4
63 52 41 31 24 18 14 13 13 14 14 14 12 11 10 9 8 7 6 6 5 5 5 5 5 5 5 5 5 5 5 5 5 5 5 5 5 5 5 5 5 5 5 5 6 5 5 5 5 5 5 4 4 4 4 4 4 4 4 4 4 4 4 4 4 4 4 4 4 4 4 5 5 5 5 5 5 5 4 4 4 3 3 3 3
58 48 40 33 25 19 16 14 15 16 15 15 14 12 11 10 8 7 6 6 6 5 5 5 5 5 5 5 5 5 5 5 5 5 5 5 5 5 5 5 5 5 5 5 5 5 5 5 5 5 5 5 4 4 4 4 4 4 4 4 4 4 4 4 4 4 4 4 4 4 4 4 4 4 5 4 5 5 4 4 4 4 4 3 3
60 52 44 36 27 20 16 15 15 16 15 14 13 11 10 8 7 7 6 6 6 6 5 5 5 5 5 5 5 4 5 5 5 5 5 5 5 5 5 5 5 5 5 5 5 5 5 5 5 5 5 5 5 5 4 4 4 4 4 4 4 5 4 4 5 4 4 4 4 4 4 4 4 4 4 4 4 4 4 4 4 4 4 4 3
65 56 45 35 25 17 14 14 14 14 13 12 10 9 8 7 6 6 5 5 5 5 5 5 5 5 4 4 4 4 4 5 4 5 5 5 5 5 5 5 5 5 5 5 5 5 5 5 5 5 5 5 5 4 4 5 4 4 5 5 5 5 5 5 5 5 5 5 4 4 4 4 4 4 4 4 4 4 4 4 4 4 4 4 4
66 53 40 28 19 15 13 13 13 12 11 9 8 7 7 6 6 6 6 5 5 5 5 5 4 5 5 4 4 4 4 5 5 4 5 5 4 5 4 4 5 4 5 5 5 5 5 5 5 5 5 5 4 4 4 4 4 4 4 5 5 5 6 6 5 5 5 5 5 5 5 4 4 4 4 4 4 4 4 3 3 3 3 4 3
61 46 33 22 15 12 12 12 11 11 11 9 8 7 7 6 6 6 5 5 5 5 5 5 5 4 5 4 4 5 4 4 5 4 4 4 4 4 4 4 4 4 4 5 5 5 4 4 5 4 4 4 4 4 4 4 4 4 4 4 5 5 6 6 6 6 6 6 6 5 5 5 5 4 4 4 4 4 3 3 3 3 3 3 3
51 35 23 16 12 11 11 12 12 11 11 9 8 7 6 6 6 5 5 5 5 5 4 5 5 4 5 5 4 5 5 4 5 4 4 4 4 4 4 4 4 4 5 5 4 5 5 4 5 4 4 5 4 4 4 4 4 4 4 4 4 5 5 6 6 6 6 6 6 6 5 5 5 4 4 3 3 3 3 3 3 3 3 3 3
42 29 20 14 12 12 12 12 11 11 10 8 7 7 6 6 5 5 5 5 4 5 4 4 5 4 5 5 4 5 4 4 4 4 4 4 4 4 4 4 5 4 4 5 4 4 5 4 4 4 4 4 4 4 4 4 4 4 4 4 4 5 5 5 5 6 6 6 6 6 6 5 5 4 4 3 3 3 3 3 3 3 3 3 4
42 30 21 15 13 13 12 12 10 9 9 7 7 7 6 6 5 5 5 5 5 5 4 4 4 4 4 4 4 4 4 4 4 4 4 4 4 4 4 4 5 5 5 5 4 4 5 4 4 4 4 4 4 4 4 4 4 4 4 4 4 5 5 5 5 5 5 5 5 5 5 5 5 5 4 4 4 3 3 3 3 3 4 3 4
43 31 20 14 13 13 11 11 9 8 8 7 7 7 6 6 5 5 5 5 5 4 4 4 4 4 4 4 4 4 4 4 4 4 4 4 4 4 5 4 5 5 5 5 5 5 4 4 4 4 4 4 4 4 4 4 4 4 4 4 5 5 5 5 5 5 4 4 5 4 4 4 4 5 4 4 4 3 3 4 3 4 4 4 4
40 27 18 13 12 12 11 10 9 7 7 7 7 6 6 6 5 5 5 5 5 5 4 4 4 4 4 4 4 4 4 4 4 4 4 4 4 5 5 5 5 5 5 5 5 5 5 5 5 5 4 4 4 4 4 4 4 4 4 4 5 5 5 5 5 5 5 4 4 4 4 4 4 4 4 4 4 4 4 4 4 4 5 5 4
36 23 15 12 12 11 11 10 9 8 7 7 7 6 6 5 5 5 5 5 5 5 4 4 4 4 4 4 4 4 4 4 4 4 4 4 4 5 5 5 5 5 5 5 5 5 5 5 5 5 5 4 4 4 4 3 3 4 3 4 5 5 5 5 5 5 5 4 4 4 4 4 4 3 4 4 3 4 4 4 4 4 5 4 4
34 21 14 13 13 13 12 10 8 7 7 7 7 6 6 6 5 5 5 5 5 5 5 5 5 4 5 4 4 4 4 4 4 4 5 4 4 5 5 5 5 5 5 5 5 5 5 5 5 5 5 5 4 4 4 3 3 4 4 4 5 5 5 5 5 5 5 5 4 4 4 4 3 3 3 3 4 4 4 4 4 4 4 4 4
32 21 15 14 14 13 12 10 8 7 7 7 6 6 6 5 5 5 5 5 5 5 5 5 5 5 4 4 4 4 4 4 4 4 5 4 4 5 5 5 5 5 5 5 5 5 5 5 5 5 5 5 4 4 4 4 3 4 4 4 4 4 4 5 5 5 5 5 5 4 4 4 4 4 3 4 4 4 4 4 4 4 4 4 4
30 21 15 14 14 13 11 9 8 7 7 7 6 6 6 5 5 5 5 5 5 5 5 5 5 5 5 4 4 4 4 4 4 4 4 4 4 5 5 5 5 5 5 5 5 5 6 5 5 5 5 4 4 4 4 4 4 4 5 4 4 4 4 5 5 5 5 5 4 4 4 4 4 4 4 4 4 4 4 4 4 4 4 4 3
29 19 14 14 13 12 11 9 7 7 7 6 6 6 6 5 5 5 5 5 5 5 5 5 5 5 5 4 4 5 4 4 4 4 4 4 4 5 5 5 5 5 5 5 5 5 5 5 5 5 5 4 4 4 4 4 5 5 5 5 5 5 5 5 5 5 5 4 4 4 4 4 4 4 4 4 4 4 4 4 4 4 3 4 4
26 17 13 14 13 12 11 9 7 7 7 6 6 6 6 6 5 5 5 5 5 5 5 5 5 5 5 5 5 5 4 4 5 4 4 4 4 5 5 5 5 5 5 5 5 5 5 5 5 5 5 4 4 4 4 4 5 5 5 5 5 5 5 5 5 5 5 5 4 4 3 3 3 4 4 4 4 5 5 5 4 4 4 4 4
23 15 13 14 13 12 10 8 7 8 7 6 6 6 6 6 5 6 6 5 5 6 5 6 5 5 5 5 5 5 5 5 5 4 4 4 4 4 5 4 5 5 5 5 5 5 5 5 5 5 4 4 4 4 4 4 5 5 5 5 5 5 5 5 5 6 6 5 4 4 3 3 3 3 3 4 4 4 5 5 5 4 5 5 4
21 14 13 14 13 11 10 8 7 8 7 6 6 6 6 6 6 6 6 6 6 6 6 6 6 6 6 5 5 5 5 5 5 5 5 5 5 4 5 5 5 5 5 5 5 5 5 5 5 5 4 4 4 4 4 4 5 5 5 5 5 5 5 5 6 6 6 6 5 4 4 4 3 3 3 4 4 4 5 5 5 5 5 5 5
19 13 13 14 12 11 10 8 8 8 7 6 6 6 6 6 6 6 6 6 6 6 6 6 6 6 6 6 5 5 5 5 5 5 5 5 5 5 5 5 5 5 5 5 5 5 5 5 5 5 4 4 4 4 4 5 5 5 5 5 5 5 5 5 6 6 6 5 5 4 4 4 4 4 4 4 4 4 4 4 4 5 5 5 5
17 13 14 13 12 11 9 8 8 8 7 7 6 6 7 7 6 7 7 7 7 7 7 7 7 6 6 6 6 5 5 5 5 5 5 5 5 5 5 5 5 5 5 5 5 5 5 5 5 5 5 5 4 4 4 5 5 5 5 5 5 5 5 6 6 6 6 5 5 5 4 4 4 4 4 4 4 4 4 4 4 4 5 5 5
16 14 14 13 12 11 9 8 8 8 8 7 6 6 7 7 6 7 7 7 7 7 7 7 7 7 6 6 6 6 5 5 5 5 5 5 5 5 5 5 5 4 5 5 6 5 5 5 5 5 5 5 5 5 4 5 5 5 5 5 5 5 5 6 6 6 5 5 5 5 5 4 4 4 4 4 4 4 4 4 4 4 5 5 5
15 14 15 14 13 12 9 8 9 9 8 7 7 7 7 7 6 7 7 8 8 7 7 7 7 7 7 6 6 6 6 6 5 5 5 5 5 5 5 5 5 5 5 5 6 6 6 5 5 5 5 5 5 5 5 5 5 5 5 5 5 5 6 6 6 5 5 5 5 5 5 4 4 4 4 5 5 5 4 4 4 4 4 5 5
Wind_Speed
125 125 125 126 126 127 127 128 128 128 129 129 130 130 131 131 132 133 133 134 134 134 135 135 136 136 137 137 138 138 139 139 139 140 140 141 141 142 142 142 143 143 143 144 144 144 144 145 145 145 145 145 145 145 145 145 145 145 144 144 144 144 144 144 143 142 141 140 140 139 139 138 138 137 136 135 134 133 132 131 131 130 128 127 126
117 118 118 119 120 120 121 122 122 123 124 124 125 126 126 127 128 129 130 130 131 131 132 133 133 134 134 135 135 136 136 136 136 137 137 138 139 139 140 140 140 140 140 141 141 141 142 142 143 143 143 143 143 143 144 144 143 143 142 142 143 143 143 143 143 142 140 140 139 139 139 139 138 137 137 136 135 134 133 132 131 131 129 128 127
111 112 112 113 114 115 116 117 117 118 119 120 121 122 123 124 125 126 127 127 128 129 130 130 131 132 132 133 134 134 135 135 135 135 136 136 137 138 138 139 139 139 139 140 140 140 141 142 142 142 142 143 143 143 143 143 143 143 143 143 143 143 143 143 143 142 141 140 140 139 139 139 139 138 137 137 136 136 134 133 132 132 130 129 128
105 106 107 108 109 110 111 112 113 114 115 116 117 118 119 120 121 122 123 124 125 126 127 127 128 129 130 131 131 132 132 133 133 133 133 134 134 135 136 136 137 137 137 137 137 138 138 139 140 140 141 141 141 142 142 142 142 142 143 142 142 143 143 143 143 143 142 141 140 140 139 139 139 139 138 138 137 136 135 134 133 132 131 130 129
103 104 105 106 107 108 110 111 112 113 114 115 116 117 118 120 120 121 123 123 124 125 126 127 128 128 129 130 131 131 132 132 133 133 133 133 134 134 135 135 135 135 135 135 135 136 136 136 137 138 138 138 138 139 139 139 139 140 140 140 140 140 141 141 142 142 141 140 140 139 139 138 138 138 138 138 137 136 135 135 134 132 131 131 129
102 104 105 107 108 109 110 111 112 114 115 116 117 119 120 121 122 123 124 125 126 127 128 128 129 130 130 131 132 132 133 133 134 134 134 134 135 135 136 136 137 136 136 136 136 137 136 137 138 138 138 138 138 138 138 138 138 138 138 138 138 138 138 138 138 139 139 139 138 137 137 136 136 136 136 136 136 136 135 134 132 132 131 130 129
104 105 106 108 109 110 111 113 114 115 117 118 119 120 121 123 124 125 126 127 128 129 130 131 131 132 133 133 134 134 135 135 135 136 136 136 136 136 137 138 138 138 138 137 138 138 138 139 139 140 140 139 139 139 139 139 139 139 139 139 138 138 138 137 137 138 138 138 137 136 135 134 134 133 133 133 133 133 134 133 131 130 129 128 127
106 107 108 110 111 112 113 114 116 117 118 120 121 122 123 125 126 127 128 129 130 131 132 133 134 134 135 136 136 137 137 138 138 138 138 138 138 139 139 140 139 139 139 138 139 139 139 140 141 141 141 141 141 141 141 141 141 141 141 141 141 140 140 140 139 139 139 139 139 138 137 135 134 133 133 132 131 130 131 132 132 130 128 127 126
106 107 108 109 110 111 112 114 115 116 117 118 120 121 122 123 124 126 127 128 129 131 132 133 134 134 135 136 137 137 138 138 139 140 140 140 140 141 141 142 142 141 141 140 140 140 140 141 142 142 142 142 142 142 142 142 142 143 142 143 142 142 142 142 141 141 141 141 141 141 140 138 137 136 135 134 133 131 130 131 132 131 129 127 126
100 102 103 104 105 106 107 108 110 111 112 113 114 115 116 117 119 120 121 122 124 125 127 128 129 130 131 132 133 134 135 135 136 137 138 138 139 140 141 141 142 141 141 141 142 142 142 142 143 144 144 144 144 144 144 144 144 144 144 144 144 144 144 144 143 143 143 143 143 143 142 142 140 139 138 137 135 133 132 131 133 133 132 130 128
93 95 96 97 99 100 101 102 103 105 106 107 108 109 110 111 112 114 115 116 118 119 120 122 123 124 126 127 128 129 130 131 132 132 133 133 134 135 136 137 137 138 138 139 139 140 140 141 142 143 144 144 145 145 145 145 146 146 146 146 146 146 146 146 145 145 145 145 145 144 144 144 143 142 141 140 138 136 134 133 133 134 134 133 132
87 89 90 91 92 94 95 96 97 99 100 101 102 103 105 106 107 108 110 111 113 114 115 117 118 119 121 122 123 124 125 126 127 128 129 129 130 131 132 132 133 133 133 134 135 135 136 137 138 139 140 141 142 143 144 144 145 146 146 147 147 148 148 147 147 147 147 146 146 146 146 146 146 145 144 143 141 139 137 135 134 135 135 135 135
82 83 85 86 88 89 90 92 93 94 96 97 99 100 101 102 103 104 106 107 109 110 112 113 114 116 117 118 120 121 121 122 123 124 125 126 127 128 129 129 130 130 131 131 131 132 132 133 133 134 135 136 137 138 139 140 141 142 143 144 145 146 147 147 148 148 148 148 148 147 147 147 147 147 147 146 145 143 141 138 137 136 136 135 136
78 79 81 82 84 85 86 88 89 91 92 94 96 97 98 99 100 101 102 104 105 106 108 110 111 112 113 115 116 117 118 119 119 120 121 122 123 124 125 126 127 127 128 129 129 130 130 130 131 131 132 133 133 134 135 136 136 137 138 139 140 142 143 144 145 146 146 147 147 147 147 148 148 148 148 148 147 146 144 142 140 138 137 136 137
74 75 77 78 80 81 83 84 86 87 89 91 93 95 95 96 97 98 99 101 101 102 104 106 107 108 109 110 112 114 115 116 116 117 118 118 119 120 121 122 123 124 124 125 126 127 127 128 129 129 130 130 131 131 132 132 133 133 134 135 136 137 138 139 140 141 142 143 144 145 145 146 147 147 147 147 147 147 146 144 142 141 140 139 138
71 72 73 75 76 78 79 81 83 84 85 87 90 92 93 94 95 96 97 99 99 99 100 102 103 104 105 106 108 109 111 112 112 113 114 115 116 117 118 119 120 121 122 122 123 123 124 124 125 126 126 127 128 129 129 130 130 131 131 132 133 133 134 135 135 136 137 138 139 140 141 142 143 144 145 145 145 146 145 145 144 142 141 140 140
68 69 70 71 72 74 75 77 79 80 82 84 86 88 89 91 93 94 95 96 97 97 97 98 100 101 102 103 104 105 106 107 108 109 110 111 112 112 114 115 117 118 119 120 120 121 121 121 122 122 122 123 124 124 126 126 127 128 129 129 130 130 131 131 132 133 133 134 135 135 136 137 138 139 140 141 142 143 143 143 143 142 141 141 140
64 65 67 67 68 70 71 73 75 76 78 80 83 85 87 88 90 92 93 94 95 95 95 95 96 98 99 100 101 102 102 103 104 105 106 107 108 109 110 111 112 114 115 117 118 119 119 120 120 121 121 121 121 121 121 122 122 124 125 126 127 128 128 129 129 130 130 131 131 132 132 133 134 135 136 137 138 138 139 140 140 140 140 140 139
62 63 64 66 67 68 69 70 72 73 74 76 78 81 83 85 88 90 92 94 95 96 95 93 93 95 97 98 99 100 100 100 100 101 103 104 105 106 107 108 109 110 112 113 114 115 116 118 119 119 120 120 120 120 120 120 120 120 121 121 122 123 124 125 127 127 128 128 129 129 129 130 131 131 132 133 134 134 135 136 136 137 137 137 137
62 63 64 66 66 67 68 68 69 70 71 73 74 76 78 80 82 85 89 92 95 97 96 94 92 94 96 97 99 99 99 99 99 99 101 102 103 104 104 105 106 107 108 110 111 112 113 114 115 116 117 118 119 119 120 120 120 120 120 120 119 119 120 121 122 123 124 125 126 127 127 128 128 128 129 129 130 131 131 132 132 133 133 134 134
64 65 66 67 67 68 68 68 68 69 70 71 72 74 75 77 78 81 84 87 92 95 96 94 92 93 95 96 98 99 99 99 99 99 100 101 102 102 103 103 104 105 105 106 107 108 109 110 111 112 113 114 115 116 117 118 118 119 119 119 119 120 119 119 119 120 120 121 122 123 124 125 126 126 126 127 127 128 128 129 129 130 130 131 130
67 67 68 69 70 70 71 71 70 70 70 71 72 73 74 75 77 78 80 84 88 92 94 94 92 92 94 95 97 98 99 99 99 99 100 101 101 101 102 102 102 103 103 104 104 105 105 106 107 107 108 108 109 110 111 113 114 115 116 117 117 118 119 119 120 120 119 118 118 118 119 121 122 123 123 124 125 125 126 126 126 126 127 127 128
70 71 72 72 73 74 74 74 74 73 73 73 73 73 73 74 75 77 79 81 85 88 92 93 92 92 93 94 95 97 98 99 99 99 100 100 100 101 101 101 101 101 102 102 102 102 103 103 103 103 103 103 104 105 106 107 108 109 110 111 112 114 115 116 118 118 118 118 117 116 116 117 117 118 120 121 122 122 123 123 123 123 124 124 125
75 76 76 76 76 76 76 76 76 75 75 74 74 73 72 73 74 75 77 79 82 85 88 90 91 91 93 93 94 95 96 98 99 99 100 100 100 100 99 100 100 100 100 100 100 100 101 101 101 100 100 100 100 101 102 103 103 104 104 105 107 108 109 111 112 114 115 116 116 117 116 116 114 114 115 117 118 119 119 120 120 120 121 121 121
80 80 80 80 80 79 79 78 77 76 76 75 74 73 72 72 73 74 76 78 80 82 84 87 89 91 92 93 93 93 95 96 97 98 98 98 98 98 98 98 98 98 98 98 98 98 98 98 98 98 97 97 97 98 98 99 99 100 100 101 102 103 104 105 107 108 110 111 113 114 115 115 114 113 112 112 113 114 115 116 117 117 118 118 118
85 85 85 85 85 84 84 83 82 80 79 77 76 74 73 73 74 75 76 78 80 81 83 85 87 89 90 91 91 92 93 94 95 95 95 96 96 96 96 96 96 96 96 96 96 96 96 96 96 95 95 95 95 95 96 96 96 97 97 98 99 99 100 101 102 103 104 106 108 109 111 112 112 112 111 110 109 109 110 111 113 114 115 115 115
90 91 91 91 90 90 89 88 87 86 85 83 81 79 78 77 77 77 77 78 79 80 81 83 85 86 87 88 88 89 89 90 91 91 92 92 93 93 93 93 93 93 94 94 94 94 94 94 94 94 94 94 94 94 94 94 94 94 95 95 96 96 97 98 98 99 100 101 103 104 106 108 108 108 108 108 107 107 107 107 108 109 111 112 112
94 95 95 95 94 94 93 92 92 91 90 89 87 86 84 83 82 81 80 80 80 80 80 80 81 82 83 83 84 85 85 85 86 86 87 88 88 89 89 89 90 90 90 90 90 91 91 91 92 92 92 92 92 92 92 92 92 92 93 93 93 94 94 95 96 96 97 98 99 100 102 103 104 104 105 105 105 105 105 104 105 105 106 107 108
96 97 97 98 97 97 96 96 95 94 93 93 92 91 90 89 87 86 84 83 82 80 80 80 79 79 79 79 80 81 81 81 82 82 83 83 83 84 85 86 86 86 86 87 87 88 88 89 89 90 90 90 90 91 90 90 90 90 90 91 91 91 91 92 93 93 94 95 96 97 98 98 99 100 101 102 103 103 103 103 103 103 102 102 103
97 98 99 100 100 100 99 98 97 96 94 93 92 92 91 90 89 87 85 83 82 80 80 79 79 78 78 77 78 78 79 79 79 79 79 79 80 81 81 82 82 82 83 83 84 85 85 86 86 87 88 88 88 88 88 87 87 88 88 88 88 88 89 89 90 91 92 93 93 94 94 95 96 96 97 98 99 100 101 101 101 101 100 99 99
100 101 102 102 101 100 99 98 96 94 93 92 91 91 90 88 87 85 84 82 80 79 79 78 78 78 77 76 77 77 77 77 77 77 77 77 77 78 78 78 79 79 80 81 82 82 83 83 83 84 85 86 86 86 85 85 85 85 85 85 85 85 86 87 88 89 90 90 91 91 92 92 93 94 94 95 96 97 98 98 99 99 98 97 96
102 103 103 102 101 99 98 96 94 92 91 90 90 90 89 87 86 84 83 81 80 79 79 79 78 77 77 76 76 75 75 75 75 75 75 76 76 76 76 76 76 77 77 78 79 79 80 80 81 82 83 83 84 83 82 82 82 82 82 81 81 82 84 85 86 87 87 88 89 89 90 90 90 91 92 92 93 94 95 95 96 95 95 95 94
104 104 103 102 100 99 96 94 92 91 90 91 91 91 89 88 86 84 83 81 80 79 79 78 77 77 77 76 75 74 73 73 73 73 74 74 74 74 74 74 74 74 74 75 75 76 77 77 78 79 80 81 82 81 80 80 80 80 79 78 77 78 80 82 83 84 85 86 87 88 88 89 89 90 90 91 91 92 92 92 92 91 91 91 92
104 104 103 102 100 98 96 95 94 94 94 93 93 92 90 88 86 84 82 81 80 79 78 78 77 76 76 75 74 73 72 71 71 71 72 73 73 72 72 72 72 72 72 72 73 73 74 74 75 76 77 78 79 78 78 78 77 77 76 75 74 75 77 78 80 81 82 83 85 86 87 88 89 89 90 90 90 90 90 89 88 87 87 87 88
104 104 103 103 101 100 98 97 96 95 94 93 92 90 88 87 85 84 82 81 79 79 78 77 76 75 74 73 73 72 72 71 70 70 70 71 70 70 70 69 69 69 70 70 70 70 71 72 72 73 74 76 76 76 75 75 75 74 73 72 71 72 74 75 77 79 80 82 83 84 85 87 88 90 90 89 88 87 86 86 85 84 84 85 85
106 106 106 105 104 102 100 97 95 94 93 92 90 88 86 86 85 83 82 81 79 78 77 75 74 73 72 71 71 71 71 70 70 69 69 69 68 68 67 67 67 67 68 68 68 68 69 69 70 71 72 73 74 73 72 72 72 71 69 68 68 69 71 73 75 77 79 80 81 82 83 85 87 88 88 87 86 84 83 82 82 81 82 82 83
109 109 108 107 105 102 99 97 95 94 93 91 89 87 86 85 85 83 82 81 79 78 76 74 72 71 70 70 69 69 69 69 68 68 67 67 66 66 65 65 65 65 66 66 66 67 67 68 68 69 69 70 71 71 69 69 69 68 66 65 65 67 69 71 73 75 76 77 79 80 81 82 83 84 85 86 85 82 80 79 78 78 78 79 81
110 110 108 107 105 101 98 96 95 93 92 90 88 87 86 85 84 83 81 80 79 77 76 74 72 70 69 68 68 68 67 67 66 66 65 65 64 64 63 63 63 64 64 65 65 65 65 66 66 67 68 68 69 68 67 67 67 65 62 61 62 64 66 68 70 72 73 74 76 78 78 78 79 81 82 83 82 80 77 76 76 75 76 78 80
110 109 108 107 104 101 98 97 96 95 93 90 88 86 85 84 83 82 80 79 77 76 74 73 72 70 69 67 67 66 65 65 64 64 63 63 62 62 61 61 62 62 63 63 63 63 64 64 65 66 66 66 66 67 66 65 64 62 59 57 58 61 63 65 67 68 70 72 74 75 75 75 76 77 79 79 78 77 75 74 74 74 75 78 80
110 109 108 106 104 102 100 99 97 95 92 90 88 87 85 84 82 80 79 77 76 74 73 72 70 69 67 66 65 64 63 63 62 61 61 60 60 59 59 60 60 60 61 61 61 61 62 63 64 64 64 64 64 65 65 63 61 59 56 54 56 58 61 63 64 66 68 70 71 71 72 73 73 73 74 75 75 74 72 71 72 73 75 77 77
111 110 109 107 105 103 101 99 97 94 91 88 87 86 85 83 81 79 78 76 74 73 71 70 69 67 66 64 63 62 61 60 60 59 59 58 57 57 57 57 58 58 58 59 59 59 60 61 62 62 62 62 62 63 63 61 58 56 55 54 55 57 59 60 62 64 66 67 68 69 70 70 69 69 70 70 70 70 69 69 70 72 73 74 74
111 111 109 107 104 101 99 98 96 93 90 88 86 84 83 82 80 78 76 75 73 71 70 69 67 66 65 63 62 61 59 58 58 57 57 56 55 55 55 55 55 56 56 57 57 57 58 60 61 61 61 61 61 61 61 59 55 53 53 54 55 56 57 58 60 63 64 65 66 68 68 67 66 65 65 65 65 66 66 67 68 69 70 71 72
111 110 108 105 102 100 98 97 95 92 89 87 85 83 82 80 79 77 76 74 72 70 69 67 66 65 64 63 61 60 58 57 56 56 55 55 54 53 53 53 53 53 54 55 56 56 56 58 59 60 59 59 59 58 57 55 53 51 52 54 54 54 54 55 57 59 61 62 64 65 65 64 62 61 61 61 62 62 62 64 65 66 67 68 69
111 109 107 104 101 99 98 96 93 90 88 86 84 83 81 80 78 76 75 73 72 70 68 67 65 64 63 62 60 59 57 56 55 55 54 53 52 52 51 51 51 52 53 54 54 54 54 56 57 58 58 57 56 55 54 52 50 49 51 53 54 53 52 52 53 56 58 60 62 63 62 61 59 57 58 58 58 58 59 61 63 64 64 65 66
110 108 106 103 100 98 97 95 93 90 87 86 84 82 81 79 78 76 75 73 71 70 68 67 65 64 62 61 59 58 57 56 55 54 53 52 51 51 50 50 50 50 51 52 52 52 53 54 56 56 56 55 54 52 51 49 48 48 49 51 52 52 51 49 50 52 55 58 61 61 59 57 55 55 55 55 54 54 56 60 62 61 61 62 64
109 108 105 102 99 97 96 94 92 89 87 85 84 82 80 79 77 76 74 73 71 70 68 67 65 63 62 61 59 58 56 55 54 53 52 51 50 50 49 49 49 49 50 50 51 51 51 53 54 54 54 54 52 50 48 47 47 47 47 48 50 51 49 47 47 49 53 57 60 59 56 54 53 53 52 52 52 52 54 58 59 59 59 61 62
109 107 104 101 98 97 95 93 91 89 87 85 84 82 80 78 76 75 73 72 71 69 68 66 65 63 62 60 59 57 56 54 53 52 51 49 49 48 48 48 48 48 49 49 50 50 50 51 53 53 52 52 51 49 47 46 45 45 46 47 48 47 46 45 45 47 51 55 57 55 53 53 52 51 49 49 49 50 52 55 56 56 57 59 60
109 106 103 100 98 96 95 93 90 88 87 85 83 81 79 77 76 74 72 71 70 69 68 66 65 63 61 60 58 57 55 53 52 51 49 48 47 47 46 46 46 47 48 48 48 49 49 50 51 51 51 51 50 47 46 45 44 45 46 46 46 44 44 43 45 47 50 52 53 52 52 52 51 49 47 46 46 48 50 52 53 54 56 57 58
108 106 103 100 98 96 95 93 90 88 87 85 83 81 79 77 75 73 71 70 69 68 67 66 64 63 61 60 58 57 55 53 52 50 49 47 46 45 45 45 44 45 46 47 48 48 48 49 50 49 49 50 49 46 44 43 43 44 45 45 43 42 41 42 44 46 48 48 49 50 50 50 49 47 45 44 44 46 49 50 50 52 54 55 56
108 106 103 100 98 97 95 92 90 88 87 85 83 81 79 76 74 72 70 69 68 67 66 65 63 62 60 59 58 56 55 54 52 51 49 47 45 44 44 44 44 44 44 45 47 48 48 48 48 48 48 48 48 46 44 43 42 43 44 43 41 39 39 41 43 45 45 45 47 48 48 47 46 45 43 41 42 45 47 48 48 49 51 53 54
107 105 103 100 98 97 95 92 90 88 86 85 83 81 79 76 74 71 69 68 68 67 66 64 63 61 59 58 57 56 54 53 52 50 49 48 46 43 41 41 43 43 43 44 45 46 47 47 47 48 48 46 45 45 44 42 41 42 42 42 40 38 38 40 43 43 42 43 44 46 46 45 44 43 41 40 41 43 45 46 47 48 49 50 51
Wind_Direction
274 274 274 274 274 274 274 274 273 273 273 273 273 273 272 272 272 272 272 271 271 271 271 270 270 270 269 269 269 269 268 268 268 267 267 267 267 267 267 267 266 266 266 266 266 266 266 266 266 266 266 266 266 266 266 266 266 266 266 266 265 265 265 265 265 265 265 265 264 264 264 264 264 264 264 264 263 263 263 263 263 262 262 262 262
274 274 274 274 274 274 274 274 274 274 274 274 273 273 273 273 273 273 272 272 272 272 271 271 271 271 270 270 270 270 269 269 268 268 268 268 268 268 267 267 267 267 267 266 266 266 266 266 266 266 266 266 266 266 265 265 266 266 265 265 265 265 265 265 265 265 265 265 265 264 264 264 264 264 264 264 263 263 263 263 262 262 262 262 261
275 275 275 275 275 275 275 275 274 274 274 274 274 274 274 273 273 273 273 273 272 272 272 272 271 271 271 271 270 270 270 269 269 269 268 268 268 268 268 267 267 267 267 266 266 266 266 266 266 266 266 265 265 265 265 265 265 265 265 265 265 265 265 265 265 265 265 264 264 264 264 264 264 264 264 264 264 263 263 263 262 262 262 261 261
277 277 277 276 276 276 276 275 275 275 275 275 274 274 274 274 273 273 273 273 273 272 272 272 271 271 271 271 270 270 270 270 269 269 269 268 268 268 267 267 267 267 266 266 266 266 265 265 265 265 265 265 265 265 265 265 265 265 265 265 264 264 264 264 264 264 264 264 264 263 263 263 264 264 264 263 263 263 263 263 262 262 262 261 261
278 278 277 277 277 277 277 276 276 276 276 275 275 275 275 274 274 274 273 273 273 273 272 272 272 271 271 271 271 270 270 270 269 269 269 268 268 268 267 267 267 267 266 266 266 265 265 265 265 265 265 264 264 264 264 264 264 264 264 264 264 264 264 264 264 264 264 263 263 263 263 263 263 263 263 263 263 263 262 262 262 262 262 261 261
278 278 278 277 277 277 277 277 277 277 276 276 276 276 275 275 275 275 274 274 274 274 273 273 273 272 272 272 271 271 271 270 270 270 269 269 269 268 268 267 267 267 267 266 266 266 266 265 265 265 265 264 264 264 264 264 264 264 263 263 263 263 263 263 263 263 263 263 263 262 262 262 262 262 262 262 262 263 262 262 261 261 261 261 261
279 279 279 279 279 278 278 278 278 277 277 277 277 277 276 276 276 276 276 275 275 275 275 274 274 274 274 273 273 272 272 272 271 271 270 270 269 269 269 268 268 267 267 266 266 266 266 266 265 265 265 265 264 264 264 264 264 264 263 263 263 263 263 262 262 262 263 263 262 262 261 261 261 261 261 261 261 262 262 262 261 260 260 260 260
281 281 280 280 280 280 279 279 279 278 278 278 278 277 277 277 277 276 276 276 276 276 275 275 275 274 274 274 274 273 273 273 273 272 272 272 271 270 270 270 269 268 268 267 267 266 266 266 265 265 265 265 264 264 264 264 264 263 263 263 263 263 263 262 262 262 262 262 262 262 261 261 260 260 260 260 260 260 261 262 261 260 260 259 259
281 281 281 281 281 280 280 280 279 279 278 278 278 277 277 277 277 276 276 276 276 275 275 275 275 274 274 274 274 273 273 273 273 272 272 272 272 271 271 271 270 270 269 269 268 268 267 267 266 266 266 265 265 264 264 264 264 263 263 263 263 263 262 262 262 262 262 262 262 262 262 261 260 260 259 259 259 259 259 260 261 261 260 259 258
282 282 282 282 281 281 281 280 280 280 279 279 279 278 278 277 277 277 276 276 276 275 275 275 275 274 274 274 274 273 273 273 272 272 272 271 271 271 271 270 270 270 270 269 269 269 268 268 267 267 267 266 266 265 265 265 264 264 264 263 263 263 262 262 262 262 262 261 262 262 262 261 261 260 259 259 258 258 258 258 259 260 260 260 259
284 283 283 283 283 283 282 282 282 281 281 280 280 280 279 279 278 278 277 277 277 276 276 275 275 275 274 274 274 274 273 273 273 272 272 272 271 271 271 270 270 270 269 269 269 268 268 268 267 267 267 266 266 266 265 265 265 265 264 264 264 263 263 263 262 262 261 261 261 261 261 261 261 260 260 259 258 258 257 257 257 258 259 259 259
286 286 285 285 285 284 284 284 283 283 283 282 281 281 280 280 279 279 279 278 278 277 277 276 276 275 275 275 274 274 273 273 273 273 272 272 272 272 271 271 271 270 270 269 269 268 268 267 267 266 266 266 265 265 265 265 264 264 264 264 263 263 263 263 263 262 262 261 261 261 261 261 261 261 260 260 259 258 257 256 256 256 257 258 258
289 289 289 288 288 288 287 287 286 286 285 285 284 283 282 282 281 281 280 279 279 278 278 277 277 276 276 275 275 275 274 273 273 273 273 272 272 272 272 271 271 271 270 270 269 269 268 268 267 266 266 266 265 265 264 264 264 263 263 263 263 263 262 262 262 262 262 262 261 261 261 261 261 261 260 260 260 259 258 257 256 255 255 256 256
293 293 292 291 290 290 289 289 288 288 287 286 286 285 284 284 283 282 281 281 280 280 279 278 278 277 277 276 276 276 275 274 274 273 273 273 272 272 272 271 271 271 270 270 270 269 269 269 268 267 267 266 266 265 265 264 264 263 263 263 262 262 262 261 261 261 261 261 261 261 261 261 260 260 260 260 260 259 259 258 256 255 255 255 255
295 294 293 293 292 292 291 291 290 290 289 289 288 287 287 286 285 284 283 282 281 281 280 279 279 278 278 277 277 276 276 275 275 274 274 274 273 273 273 272 272 271 271 270 270 269 269 268 268 268 267 267 267 266 265 265 264 264 263 263 262 262 262 261 261 261 260 260 260 260 260 260 260 260 260 260 260 259 259 258 258 256 255 255 254
297 296 295 295 294 294 293 293 292 291 290 290 289 288 288 287 286 285 285 284 283 282 281 281 280 280 279 278 278 277 277 276 276 275 275 274 274 273 273 273 273 273 272 272 271 270 270 269 268 268 267 267 267 266 266 266 265 265 264 264 263 263 262 262 261 261 260 260 260 260 259 259 259 259 259 259 259 259 258 258 258 257 256 255 254
299 298 297 296 295 294 294 293 292 291 290 289 288 288 287 287 286 286 285 284 284 283 282 282 281 281 280 279 279 278 278 277 277 276 275 275 274 273 273 273 272 272 272 272 272 272 271 271 270 269 268 268 267 266 266 266 265 265 265 264 264 264 263 262 262 261 261 260 260 260 259 259 259 258 258 258 258 258 257 257 257 257 256 255 255
301 300 298 297 296 294 294 293 293 293 292 292 291 291 290 289 288 287 286 285 284 283 282 282 281 281 280 280 279 278 277 277 276 276 276 275 274 274 273 272 272 272 271 271 271 271 271 271 271 271 270 270 269 268 267 266 265 265 264 264 264 264 264 263 263 262 262 261 260 260 259 259 259 258 258 257 257 257 257 256 256 256 255 255 254
303 302 301 300 299 298 297 297 297 297 296 296 295 295 294 293 292 292 291 289 288 287 286 285 284 284 283 282 281 280 279 278 277 277 276 275 275 274 273 273 272 271 271 271 270 270 270 270 270 270 270 270 270 270 269 268 268 267 266 265 264 263 263 263 263 263 262 262 261 261 260 260 259 258 258 258 257 257 256 256 256 255 255 254 253
308 308 307 306 305 303 302 301 300 300 299 299 298 297 296 295 295 294 293 292 291 290 289 288 287 286 285 284 284 283 282 281 280 279 278 277 276 275 274 273 273 272 271 271 271 270 270 269 269 269 269 269 269 269 269 269 269 268 268 267 266 265 264 263 262 262 261 261 261 261 261 260 260 259 259 258 258 257 256 256 255 255 254 254 253
314 313 312 311 310 308 307 305 303 302 300 299 299 298 298 297 296 295 294 293 291 291 290 290 289 288 286 285 285 284 283 283 282 281 280 279 278 277 276 275 274 274 273 272 272 271 271 270 270 269 269 268 268 268 268 268 267 267 267 267 267 267 266 265 264 263 262 261 261 260 260 260 260 259 259 259 258 258 257 256 256 255 255 254 253
318 317 316 315 314 312 311 309 306 304 303 302 301 301 300 299 298 296 295 293 292 291 291 290 290 288 287 286 285 285 284 283 283 282 281 280 279 279 278 277 277 276 275 275 274 273 272 272 271 270 269 269 268 268 267 267 266 266 266 266 266 266 266 266 265 265 264 263 262 261 260 259 259 259 259 259 258 258 257 257 256 255 255 254 253
321 320 320 319 317 316 314 313 311 309 308 306 305 304 302 300 298 297 295 293 292 291 291 291 290 288 287 286 285 285 284 284 283 282 281 281 280 280 279 279 278 278 277 276 276 275 274 273 272 272 271 270 269 269 268 267 266 266 266 265 265 264 264 264 264 265 265 265 264 263 262 260 259 259 258 258 258 258 257 257 256 256 255 255 254
324 324 323 321 320 318 317 315 313 311 309 307 305 303 301 300 298 296 294 293 292 291 291 290 289 288 287 286 285 285 284 284 283 283 282 282 281 281 280 280 279 279 278 277 277 276 275 275 274 273 273 272 271 270 269 268 268 267 266 266 265 264 264 263 263 263 264 264 264 264 263 263 261 260 259 258 257 257 257 257 256 256 255 255 254
327 326 325 323 322 320 318 315 313 310 308 305 303 302 301 299 298 297 296 295 294 292 292 291 290 289 288 287 286 285 284 284 284 283 283 283 282 282 281 281 280 279 279 278 277 277 276 276 275 275 274 273 272 271 270 269 269 268 267 266 266 265 264 263 263 263 263 263 263 263 263 263 263 262 260 259 258 257 257 256 256 256 255 255 254
330 329 327 326 325 323 321 319 316 313 311 308 306 304 303 302 301 300 299 297 296 294 293 292 291 290 289 288 287 286 285 285 284 284 284 283 283 282 281 281 280 279 279 278 278 278 277 277 276 275 275 274 273 272 271 270 270 269 268 267 267 266 265 264 264 263 262 262 262 262 262 262 262 262 262 261 260 258 257 256 256 255 255 254 254
332 331 330 329 328 326 325 323 321 319 317 314 312 310 309 307 305 303 301 299 297 296 294 293 291 290 289 289 288 287 286 286 285 285 284 283 283 282 282 281 280 280 279 279 279 278 278 277 276 276 275 274 273 272 271 270 270 269 269 268 267 267 266 265 265 264 263 262 262 261 261 262 262 262 262 262 261 260 259 258 256 255 254 254 253
333 332 331 330 329 328 327 326 324 322 321 319 317 315 314 312 309 307 305 303 301 299 297 295 293 292 291 290 289 288 287 286 285 284 283 283 282 282 282 281 280 280 280 279 279 278 277 277 276 275 275 274 273 272 271 271 270 269 269 268 268 267 267 266 265 265 264 263 262 262 262 261 262 262 262 262 261 261 260 259 258 256 255 254 253
333 333 332 331 331 330 328 327 326 324 323 321 320 318 317 315 313 311 309 307 305 303 301 298 297 295 293 292 290 289 288 286 285 284 284 283 283 282 281 280 280 280 279 279 278 277 277 276 276 275 275 274 273 273 272 271 271 270 269 269 268 268 267 267 266 265 265 264 263 263 262 262 262 261 261 261 261 261 261 260 259 258 256 255 253
333 333 333 332 331 330 329 328 326 325 323 322 320 318 317 315 313 311 310 308 307 305 303 301 299 297 296 294 293 291 290 289 287 287 286 285 283 282 281 281 280 280 279 278 277 277 276 276 276 275 275 274 274 273 272 272 271 271 270 269 269 268 268 267 267 266 265 265 264 264 263 262 262 261 261 261 260 260 260 260 259 259 258 256 254
334 334 334 333 332 330 329 327 326 324 323 321 319 318 316 315 313 312 311 309 308 307 305 303 301 299 298 297 295 293 293 292 291 289 288 286 284 283 282 281 280 279 279 278 277 277 277 276 276 275 275 274 274 273 273 272 271 271 270 270 269 269 268 267 267 266 266 265 265 264 263 263 262 261 261 260 260 259 259 259 259 259 258 257 256
335 334 333 332 331 330 328 327 325 324 322 321 320 318 317 316 315 314 313 312 310 309 307 305 303 302 300 299 297 296 295 294 292 291 289 287 286 284 283 282 281 280 279 279 278 278 277 277 276 275 275 274 274 273 273 272 271 271 270 270 269 269 268 268 267 266 266 266 265 265 264 263 263 262 261 260 259 259 258 258 258 258 258 257 257
334 334 333 332 331 330 328 327 326 325 324 323 322 321 320 318 317 316 315 314 312 310 308 306 305 304 302 301 300 299 297 295 293 291 290 288 287 285 284 283 282 282 281 280 279 278 278 277 276 275 275 274 274 273 273 272 271 271 270 269 269 268 268 268 267 267 266 266 265 265 264 264 263 262 261 260 260 259 258 258 257 257 257 257 257
334 333 332 332 331 330 329 329 328 328 327 326 324 322 321 320 318 317 316 315 314 312 310 308 307 306 304 303 302 300 298 296 294 292 291 289 288 288 287 286 285 284 283 281 280 279 278 277 276 276 275 274 274 274 273 272 271 271 270 270 269 268 268 267 267 267 266 265 265 264 264 263 263 262 261 260 259 259 258 258 258 258 257 257 257
334 334 333 333 333 332 331 331 330 329 327 326 324 323 321 320 319 318 318 317 315 313 312 310 309 307 306 304 302 301 299 297 295 293 292 291 291 290 289 288 287 286 284 283 282 281 279 278 277 276 275 275 274 274 273 273 272 271 271 270 269 268 267 267 266 265 265 264 263 263 263 263 262 262 262 261 260 260 260 260 259 259 259 258 258
335 335 335 335 334 333 332 331 330 329 328 326 325 324 323 321 321 320 319 318 317 315 313 312 310 308 306 304 302 301 299 298 296 295 294 293 292 291 290 289 288 287 285 284 283 282 281 279 278 277 276 276 275 275 274 274 273 272 271 271 270 268 267 266 265 264 264 264 263 263 262 262 262 263 264 264 263 262 261 261 260 260 259 259 258
337 336 336 335 334 333 332 331 330 330 329 327 326 325 324 323 322 322 321 319 317 316 314 313 311 309 307 305 303 302 300 299 298 297 295 294 293 292 291 290 288 287 286 285 283 282 281 281 280 279 278 277 276 276 275 274 274 273 272 271 270 269 268 266 266 265 264 264 264 263 262 262 263 264 264 265 265 264 264 263 262 261 261 260 259
337 337 336 335 334 333 332 331 331 331 330 329 328 327 326 325 324 322 321 320 318 317 316 314 313 311 309 307 305 303 302 301 299 298 297 296 294 293 292 291 289 287 286 285 284 283 283 282 281 280 279 278 277 277 276 275 274 274 273 272 271 270 269 267 266 266 265 264 263 263 263 263 263 263 264 264 265 265 265 264 264 263 262 261 259
338 337 336 336 334 333 333 333 333 332 331 330 329 328 327 326 324 323 322 320 319 318 317 316 314 313 311 309 307 305 304 302 301 300 298 297 296 294 293 291 290 288 287 286 286 285 284 283 281 280 280 279 279 278 277 276 276 275 275 273 272 271 269 268 267 266 265 264 263 263 263 262 262 262 263 264 264 265 265 264 264 263 261 260 258
338 337 337 336 336 335 335 334 334 333 332 331 330 329 328 327 325 324 323 322 321 320 318 317 316 315 313 311 309 307 305 304 302 301 299 298 297 295 294 292 291 290 289 288 287 286 285 283 282 281 280 280 279 279 278 277 277 277 277 275 272 270 268 267 266 266 265 264 264 264 263 262 262 262 262 263 263 264 264 263 262 261 259 259 259
338 338 338 337 337 336 335 334 334 333 333 332 331 330 329 327 326 325 324 323 322 321 320 319 318 316 314 312 310 309 307 306 304 303 301 299 298 297 295 294 293 292 290 289 288 287 285 284 282 282 281 280 280 279 279 279 279 279 278 275 271 269 267 266 265 265 264 264 265 264 263 263 262 262 262 262 263 263 262 261 260 259 259 259 259
339 339 339 338 337 336 335 335 334 334 333 333 332 331 329 328 327 327 326 325 324 324 322 321 320 318 316 314 313 311 310 308 306 304 303 301 300 298 297 296 295 293 292 290 289 287 286 285 284 283 282 281 281 280 280 281 281 281 279 276 272 270 268 268 267 266 265 265 265 264 264 264 263 262 262 262 261 261 260 259 258 258 257 257 257
340 339 339 338 337 336 336 336 335 335 334 333 333 332 331 330 329 328 328 327 327 326 325 323 322 320 318 317 315 314 312 310 308 306 305 303 302 300 299 297 296 294 292 291 289 289 288 286 285 284 283 283 283 283 283 284 283 282 279 276 273 271 270 268 267 267 267 266 265 265 264 264 263 263 262 261 260 259 259 259 258 257 256 256 256
340 339 339 338 338 337 337 337 336 335 335 335 334 333 332 331 331 330 329 329 328 328 327 326 324 323 321 319 318 316 314 312 311 309 307 306 305 303 301 299 297 296 294 292 291 291 289 288 287 286 285 285 285 285 285 285 284 282 279 277 275 273 271 269 268 268 268 267 266 265 265 265 264 263 262 260 259 259 258 258 257 256 256 255 255
340 340 339 339 338 338 338 338 337 337 336 336 336 335 334 333 332 332 331 331 330 330 329 328 327 325 324 322 320 318 316 315 313 312 310 309 307 306 304 302 300 298 296 294 293 292 291 289 288 288 287 287 287 286 286 286 284 282 279 278 276 274 273 271 270 269 268 267 267 266 266 266 265 263 262 260 259 258 257 257 256 256 255 254 254
340 340 340 340 339 339 339 339 338 338 338 338 337 336 336 335 334 333 333 332 332 332 331 330 329 328 326 325 323 321 319 317 316 314 313 311 310 308 306 304 302 300 298 297 295 294 293 291 290 290 290 290 289 288 288 287 285 283 280 278 276 275 275 273 271 270 268 267 267 267 268 268 266 264 262 260 259 257 256 256 256 255 254 254 253
341 341 341 340 340 340 340 340 340 339 339 339 338 338 337 336 335 334 334 334 333 333 333 332 331 330 328 327 326 324 322 320 318 316 315 313 312 310 308 306 304 302 300 299 297 296 295 294 292 292 292 291 291 291 290 288 286 284 282 279 278 277 276 275 272 270 268 267 268 269 269 268 266 264 262 260 258 257 255 255 255 255 254 253 253
342 341 341 341 341 342 342 341 341 341 340 340 340 339 339 338 337 336 335 335 335 335 335 334 333 331 330 329 328 327 325 323 321 319 317 316 314 312 311 309 307 305 303 301 300 298 297 296 295 295 294 294 293 293 292 291 289 287 284 282 280 280 279 277 274 271 268 268 269 270 269 268 267 265 263 261 259 257 255 254 254 254 254 254 253
342 342 342 342 342 343 343 343 342 342 341 341 341 340 340 339 339 338 337 337 337 337 336 336 335 333 332 331 330 329 327 326 324 322 320 319 317 315 313 311 309 307 305 304 302 301 299 298 297 297 297 296 295 295 294 292 290 288 286 284 283 282 280 278 275 272 270 270 271 270 269 268 268 266 264 262 259 257 255 254 253 253 253 254 253
343 343 343 343 343 344 344 344 343 343 343 342 342 341 341 341 340 339 339 339 339 339 338 338 336 335 334 334 333 332 330 329 327 325 323 321 320 319 317 315 312 310 308 307 305 304 303 302 301 300 299 298 298 298 297 295 293 290 289 287 286 285 283 279 275 273 272 272 271 270 270 269 268 267 264 262 259 257 256 254 253 252 252 253 253
344 344 343 344 344 344 345 345 345 344 343 343 342 342 342 342 342 341 341 341 341 341 340 339 339 338 337 336 335 334 333 331 330 328 326 324 322 321 320 318 316 314 312 310 308 306 305 305 304 303 302 301 300 299 297 296 293 292 290 289 289 288 285 281 278 276 274 273 271 270 270 269 268 267 265 262 259 256 256 255 253 252 251 251 252